QPF
0.01 0.01 0.01 0.01 0.01 0.01 0.02 0.02 0.03 0.03 0.04 0.05 0.07 0.08 0.09 0.08 0.06 0.04 0.02 0.03 0.03 0.03 0.07 0.06 0.06 0.06 0.06 0.06 0.05 0.05 0.05 0.05 0.04 0.03 0.04 0.04 0.03 0.03 0.04 0.03 0.02 0.02 0.01
0.00 0.00 0.00 0.00 0.01 0.02 0.02 0.02 0.02 0.03 0.04 0.05 0.04 0.04 0.05 0.05 0.04 0.03 0.03 0.03 0.03 0.04 0.05 0.07 0.06 0.05 0.06 0.06 0.05 0.05 0.06 0.05 0.03 0.04 0.04 0.04 0.03 0.02 0.02 0.03 0.02 0.01 0.01
0.00 0.00 0.00 0.01 0.02 0.02 0.01 0.02 0.02 0.02 0.03 0.04 0.04 0.03 0.04 0.03 0.03 0.03 0.03 0.03 0.03 0.04 0.04 0.05 0.05 0.05 0.04 0.04 0.05 0.05 0.06 0.06 0.04 0.05 0.06 0.05 0.05 0.04 0.02 0.02 0.02 0.02 0.01
0.00 0.00 0.01 0.01 0.02 0.01 0.01 0.01 0.02 0.02 0.02 0.03 0.04 0.03 0.04 0.03 0.04 0.03 0.03 0.02 0.03 0.03 0.04 0.05 0.05 0.05 0.04 0.04 0.05 0.08 0.08 0.07 0.07 0.05 0.03 0.04 0.04 0.03 0.03 0.03 0.02 0.02 0.01
0.00 0.00 0.01 0.01 0.01 0.01 0.01 0.01 0.02 0.02 0.02 0.02 0.02 0.02 0.02 0.03 0.03 0.03 0.03 0.02 0.03 0.03 0.04 0.05 0.05 0.05 0.05 0.05 0.05 0.08 0.05 0.05 0.07 0.06 0.05 0.05 0.04 0.03 0.03 0.03 0.03 0.02 0.01
0.00 0.00 0.00 0.01 0.02 0.02 0.02 0.01 0.02 0.03 0.02 0.03 0.03 0.03 0.03 0.03 0.03 0.04 0.03 0.02 0.02 0.03 0.03 0.03 0.04 0.04 0.05 0.05 0.05 0.04 0.03 0.03 0.05 0.05 0.06 0.06 0.05 0.06 0.05 0.03 0.03 0.03 0.02
0.00 0.00 0.00 0.01 0.02 0.02 0.02 0.02 0.02 0.02 0.02 0.03 0.03 0.03 0.03 0.03 0.04 0.04 0.03 0.03 0.02 0.03 0.03 0.02 0.03 0.04 0.06 0.06 0.05 0.04 0.03 0.03 0.04 0.04 0.05 0.06 0.05 0.06 0.06 0.05 0.03 0.03 0.02
0.00 0.00 0.00 0.02 0.03 0.02 0.02 0.02 0.02 0.02 0.02 0.02 0.03 0.03 0.03 0.03 0.03 0.04 0.04 0.04 0.03 0.03 0.03 0.03 0.04 0.06 0.08 0.07 0.06 0.05 0.04 0.03 0.04 0.03 0.05 0.06 0.04 0.05 0.06 0.06 0.06 0.05 0.03
0.00 0.00 0.01 0.02 0.02 0.02 0.02 0.03 0.03 0.03 0.03 0.02 0.03 0.04 0.04 0.04 0.04 0.05 0.05 0.04 0.04 0.04 0.05 0.06 0.06 0.07 0.08 0.07 0.05 0.04 0.04 0.04 0.04 0.03 0.04 0.04 0.04 0.04 0.06 0.06 0.07 0.06 0.04
0.00 0.01 0.02 0.02 0.01 0.02 0.03 0.04 0.06 0.05 0.04 0.04 0.03 0.03 0.04 0.04 0.05 0.05 0.05 0.04 0.04 0.05 0.06 0.07 0.07 0.07 0.07 0.06 0.05 0.04 0.03 0.03 0.04 0.03 0.04 0.04 0.03 0.04 0.04 0.05 0.05 0.05 0.05
0.01 0.01 0.01 0.01 0.01 0.02 0.02 0.02 0.03 0.05 0.05 0.06 0.05 0.04 0.04 0.04 0.04 0.05 0.04 0.04 0.05 0.05 0.05 0.05 0.05 0.05 0.06 0.07 0.06 0.05 0.04 0.03 0.04 0.04 0.04 0.05 0.04 0.04 0.03 0.03 0.04 0.04 0.04
0.01 0.01 0.01 0.01 0.00 0.01 0.01 0.01 0.01 0.04 0.04 0.05 0.04 0.04 0.03 0.03 0.03 0.02 0.03 0.05 0.05 0.04 0.04 0.04 0.05 0.06 0.07 0.09 0.10 0.08 0.07 0.06 0.07 0.08 0.07 0.05 0.04 0.04 0.03 0.02 0.02 0.03 0.03
0.01 0.01 0.00 0.00 0.00 0.01 0.01 0.01 0.01 0.01 0.02 0.04 0.03 0.04 0.03 0.03 0.02 0.02 0.03 0.04 0.05 0.05 0.05 0.04 0.06 0.07 0.09 0.10 0.11 0.12 0.10 0.10 0.09 0.08 0.06 0.04 0.04 0.03 0.02 0.02 0.02 0.03 0.03
0.01 0.01 0.01 0.01 0.01 0.01 0.01 0.01 0.01 0.01 0.01 0.02 0.02 0.02 0.03 0.02 0.02 0.02 0.02 0.03 0.03 0.04 0.04 0.05 0.05 0.05 0.05 0.06 0.05 0.05 0.05 0.06 0.07 0.06 0.05 0.04 0.04 0.03 0.03 0.02 0.03 0.03 0.03
0.00 0.00 0.00 0.01 0.01 0.01 0.01 0.02 0.02 0.01 0.01 0.02 0.02 0.02 0.02 0.01 0.01 0.02 0.03 0.03 0.03 0.03 0.05 0.06 0.06 0.05 0.05 0.04 0.05 0.06 0.05 0.04 0.04 0.04 0.04 0.02 0.03 0.03 0.03 0.02 0.02 0.03 0.03
0.00 0.00 0.00 0.01 0.01 0.01 0.01 0.01 0.01 0.02 0.02 0.03 0.02 0.01 0.01 0.01 0.01 0.02 0.02 0.02 0.02 0.02 0.03 0.03 0.06 0.05 0.03 0.04 0.05 0.05 0.07 0.08 0.06 0.05 0.04 0.03 0.02 0.02 0.02 0.02 0.02 0.03 0.03
0.00 0.00 0.00 0.00 0.01 0.01 0.01 0.01 0.02 0.02 0.03 0.02 0.01 0.01 0.01 0.01 0.01 0.01 0.01 0.02 0.03 0.03 0.04 0.04 0.05 0.06 0.06 0.04 0.04 0.04 0.05 0.06 0.06 0.06 0.05 0.03 0.03 0.04 0.03 0.02 0.02 0.02 0.02
0.00 0.00 0.00 0.00 0.01 0.01 0.02 0.02 0.02 0.02 0.02 0.01 0.01 0.02 0.02 0.02 0.01 0.01 0.02 0.04 0.05 0.05 0.05 0.04 0.05 0.05 0.04 0.04 0.03 0.03 0.04 0.04 0.05 0.04 0.04 0.04 0.04 0.04 0.04 0.03 0.03 0.02 0.02
0.01 0.01 0.00 0.00 0.01 0.01 0.01 0.02 0.01 0.01 0.01 0.01 0.02 0.02 0.02 0.02 0.02 0.02 0.04 0.05 0.04 0.03 0.03 0.02 0.02 0.02 0.02 0.03 0.04 0.04 0.05 0.05 0.04 0.03 0.03 0.03 0.04 0.04 0.03 0.04 0.04 0.05 0.04
0.01 0.01 0.00 0.00 0.01 0.01 0.01 0.01 0.01 0.01 0.01 0.01 0.01 0.01 0.02 0.03 0.03 0.04 0.04 0.04 0.04 0.03 0.02 0.01 0.01 0.02 0.03 0.03 0.03 0.03 0.04 0.04 0.04 0.03 0.02 0.02 0.02 0.03 0.03 0.03 0.04 0.05 0.05
0.01 0.02 0.01 0.01 0.01 0.01 0.01 0.01 0.02 0.01 0.01 0.02 0.03 0.03 0.04 0.04 0.04 0.05 0.05 0.04 0.03 0.03 0.02 0.01 0.02 0.02 0.03 0.02 0.01 0.01 0.02 0.04 0.04 0.03 0.02 0.02 0.02 0.02 0.03 0.03 0.04 0.05 0.05
0.01 0.02 0.02 0.02 0.01 0.01 0.01 0.02 0.02 0.03 0.03 0.03 0.04 0.04 0.04 0.05 0.06 0.07 0.07 0.06 0.04 0.03 0.02 0.01 0.02 0.02 0.02 0.01 0.01 0.01 0.02 0.04 0.04 0.04 0.04 0.03 0.03 0.02 0.03 0.03 0.04 0.04 0.04
0.02 0.01 0.01 0.02 0.02 0.02 0.02 0.03 0.03 0.04 0.04 0.04 0.05 0.05 0.07 0.08 0.09 0.10 0.09 0.08 0.07 0.05 0.04 0.03 0.02 0.02 0.02 0.02 0.02 0.01 0.02 0.03 0.04 0.07 0.10 0.10 0.09 0.07 0.07 0.07 0.07 0.06 0.05
0.01 0.01 0.01 0.01 0.02 0.03 0.03 0.04 0.04 0.04 0.05 0.05 0.06 0.07 0.07 0.09 0.10 0.10 0.08 0.06 0.06 0.05 0.04 0.04 0.03 0.02 0.02 0.01 0.01 0.01 0.02 0.03 0.04 0.04 0.05 0.07 0.08 0.07 0.07 0.07 0.07 0.07 0.07
0.01 0.01 0.01 0.02 0.02 0.03 0.04 0.04 0.04 0.04 0.04 0.05 0.06 0.07 0.07 0.07 0.07 0.07 0.07 0.06 0.05 0.05 0.04 0.03 0.03 0.03 0.02 0.02 0.02 0.02 0.02 0.03 0.03 0.04 0.03 0.03 0.04 0.04 0.04 0.04 0.04 0.04 0.04
0.01 0.01 0.02 0.02 0.03 0.02 0.02 0.03 0.03 0.03 0.03 0.03 0.04 0.04 0.04 0.04 0.03 0.04 0.05 0.06 0.04 0.03 0.02 0.01 0.02 0.03 0.03 0.03 0.03 0.02 0.02 0.03 0.03 0.03 0.03 0.02 0.02 0.02 0.02 0.03 0.04 0.03 0.03
MSLP
1013.22 1013.44 1013.60 1013.74 1013.89 1014.10 1014.39 1014.77 1015.22 1015.71 1016.21 1016.66 1017.02 1017.28 1017.42 1017.46 1017.40 1017.29 1017.15 1017.00 1016.84 1016.69 1016.55 1016.40 1016.25 1016.09 1015.93 1015.77 1015.61 1015.45 1015.28 1015.10 1014.90 1014.67 1014.42 1014.15 1013.88 1013.60 1013.35 1013.13 1012.95 1012.80 1012.68
1013.28 1013.60 1013.83 1014.00 1014.14 1014.30 1014.51 1014.80 1015.17 1015.60 1016.05 1016.48 1016.84 1017.09 1017.23 1017.27 1017.20 1017.08 1016.93 1016.77 1016.62 1016.49 1016.37 1016.27 1016.16 1016.05 1015.92 1015.78 1015.62 1015.46 1015.29 1015.11 1014.92 1014.71 1014.49 1014.24 1013.99 1013.72 1013.44 1013.16 1012.88 1012.61 1012.36
1013.08 1013.53 1013.88 1014.12 1014.29 1014.44 1014.62 1014.85 1015.15 1015.52 1015.92 1016.31 1016.65 1016.89 1017.03 1017.06 1016.99 1016.86 1016.70 1016.54 1016.41 1016.30 1016.23 1016.17 1016.11 1016.04 1015.94 1015.82 1015.66 1015.49 1015.31 1015.12 1014.93 1014.73 1014.53 1014.31 1014.07 1013.81 1013.51 1013.18 1012.82 1012.45 1012.08
1012.57 1013.17 1013.64 1013.99 1014.23 1014.41 1014.58 1014.78 1015.04 1015.37 1015.73 1016.09 1016.42 1016.66 1016.80 1016.83 1016.76 1016.64 1016.48 1016.34 1016.22 1016.15 1016.12 1016.10 1016.09 1016.05 1015.97 1015.86 1015.70 1015.51 1015.31 1015.10 1014.90 1014.71 1014.52 1014.32 1014.09 1013.83 1013.52 1013.15 1012.73 1012.28 1011.80
1011.74 1012.47 1013.07 1013.54 1013.87 1014.11 1014.30 1014.51 1014.76 1015.06 1015.41 1015.77 1016.09 1016.34 1016.50 1016.55 1016.51 1016.40 1016.27 1016.15 1016.06 1016.02 1016.01 1016.03 1016.04 1016.03 1015.97 1015.85 1015.68 1015.47 1015.24 1015.01 1014.80 1014.60 1014.41 1014.22 1014.01 1013.75 1013.43 1013.04 1012.58 1012.06 1011.51
1010.64 1011.46 1012.18 1012.75 1013.17 1013.48 1013.73 1013.97 1014.23 1014.55 1014.91 1015.28 1015.63 1015.92 1016.11 1016.20 1016.20 1016.13 1016.03 1015.94 1015.88 1015.86 1015.88 1015.91 1015.94 1015.93 1015.86 1015.73 1015.54 1015.30 1015.05 1014.79 1014.56 1014.35 1014.17 1013.99 1013.79 1013.55 1013.23 1012.83 1012.35 1011.80 1011.20
1009.37 1010.24 1011.03 1011.69 1012.19 1012.57 1012.88 1013.16 1013.47 1013.81 1014.21 1014.62 1015.02 1015.36 1015.61 1015.76 1015.81 1015.79 1015.74 1015.68 1015.64 1015.63 1015.66 1015.70 1015.72 1015.70 1015.61 1015.46 1015.24 1014.98 1014.69 1014.42 1014.17 1013.96 1013.78 1013.61 1013.43 1013.21 1012.91 1012.52 1012.04 1011.48 1010.87
1008.08 1008.95 1009.77 1010.47 1011.03 1011.47 1011.83 1012.16 1012.51 1012.91 1013.35 1013.82 1014.27 1014.67 1014.99 1015.21 1015.32 1015.36 1015.35 1015.32 1015.31 1015.31 1015.33 1015.36 1015.36 1015.32 1015.21 1015.02 1014.78 1014.49 1014.18 1013.90 1013.64 1013.44 1013.27 1013.12 1012.96 1012.77 1012.50 1012.14 1011.68 1011.15 1010.55
1006.90 1007.74 1008.54 1009.24 1009.82 1010.29 1010.70 1011.08 1011.48 1011.92 1012.42 1012.94 1013.45 1013.91 1014.29 1014.57 1014.74 1014.83 1014.86 1014.86 1014.86 1014.87 1014.89 1014.90 1014.88 1014.80 1014.66 1014.45 1014.18 1013.87 1013.56 1013.27 1013.02 1012.83 1012.68 1012.56 1012.44 1012.28 1012.06 1011.74 1011.32 1010.83 1010.26
1005.95 1006.70 1007.44 1008.11 1008.68 1009.17 1009.60 1010.01 1010.46 1010.95 1011.48 1012.05 1012.60 1013.11 1013.54 1013.86 1014.08 1014.21 1014.27 1014.30 1014.32 1014.33 1014.34 1014.34 1014.30 1014.21 1014.04 1013.82 1013.53 1013.21 1012.90 1012.61 1012.38 1012.21 1012.09 1012.01 1011.93 1011.82 1011.64 1011.38 1011.02 1010.57 1010.05
1005.26 1005.91 1006.55 1007.15 1007.69 1008.16 1008.60 1009.04 1009.51 1010.04 1010.62 1011.21 1011.79 1012.33 1012.78 1013.13 1013.37 1013.52 1013.61 1013.66 1013.69 1013.72 1013.74 1013.74 1013.70 1013.60 1013.43 1013.20 1012.91 1012.60 1012.29 1012.02 1011.81 1011.66 1011.58 1011.54 1011.51 1011.45 1011.32 1011.11 1010.80 1010.40 1009.94
1004.81 1005.31 1005.84 1006.34 1006.81 1007.25 1007.69 1008.15 1008.66 1009.22 1009.82 1010.44 1011.04 1011.58 1012.03 1012.38 1012.64 1012.80 1012.91 1012.98 1013.04 1013.10 1013.14 1013.16 1013.14 1013.06 1012.91 1012.68 1012.41 1012.10 1011.81 1011.55 1011.36 1011.25 1011.19 1011.19 1011.20 1011.18 1011.10 1010.94 1010.68 1010.34 1009.93
1004.49 1004.83 1005.21 1005.59 1005.98 1006.38 1006.82 1007.30 1007.84 1008.43 1009.06 1009.70 1010.31 1010.85 1011.30 1011.65 1011.90 1012.07 1012.20 1012.30 1012.40 1012.50 1012.59 1012.66 1012.68 1012.64 1012.51 1012.32 1012.06 1011.77 1011.49 1011.25 1011.07 1010.97 1010.94 1010.96 1011.00 1011.01 1010.98 1010.86 1010.65 1010.35 1009.98
1004.21 1004.35 1004.55 1004.80 1005.10 1005.45 1005.88 1006.38 1006.96 1007.60 1008.28 1008.95 1009.57 1010.12 1010.57 1010.91 1011.17 1011.36 1011.51 1011.66 1011.81 1011.97 1012.13 1012.26 1012.34 1012.35 1012.27 1012.10 1011.87 1011.59 1011.32 1011.08 1010.90 1010.81 1010.78 1010.81 1010.87 1010.90 1010.89 1010.81 1010.64 1010.38 1010.05
1003.86 1003.78 1003.79 1003.89 1004.08 1004.38 1004.80 1005.33 1005.97 1006.67 1007.41 1008.13 1008.79 1009.36 1009.83 1010.19 1010.46 1010.68 1010.88 1011.07 1011.29 1011.52 1011.75 1011.96 1012.10 1012.17 1012.13 1012.00 1011.78 1011.52 1011.24 1010.99 1010.81 1010.70 1010.66 1010.69 1010.74 1010.79 1010.79 1010.73 1010.58 1010.35 1010.05
1003.43 1003.12 1002.92 1002.84 1002.92 1003.16 1003.57 1004.14 1004.84 1005.62 1006.44 1007.23 1007.95 1008.58 1009.09 1009.48 1009.80 1010.06 1010.31 1010.56 1010.85 1011.15 1011.46 1011.73 1011.94 1012.06 1012.06 1011.95 1011.75 1011.48 1011.19 1010.92 1010.71 1010.57 1010.51 1010.52 1010.56 1010.60 1010.60 1010.54 1010.41 1010.20 1009.93
1002.96 1002.41 1002.00 1001.75 1001.71 1001.88 1002.28 1002.88 1003.64 1004.51 1005.41 1006.30 1007.10 1007.80 1008.37 1008.83 1009.20 1009.52 1009.82 1010.14 1010.49 1010.86 1011.23 1011.56 1011.82 1011.97 1011.99 1011.89 1011.69 1011.41 1011.10 1010.80 1010.55 1010.38 1010.29 1010.26 1010.28 1010.30 1010.29 1010.22 1010.09 1009.89 1009.63
1002.57 1001.80 1001.19 1000.77 1000.61 1000.71 1001.08 1001.70 1002.51 1003.46 1004.45 1005.42 1006.32 1007.10 1007.75 1008.28 1008.71 1009.10 1009.46 1009.83 1010.23 1010.64 1011.05 1011.41 1011.69 1011.85 1011.88 1011.78 1011.56 1011.27 1010.93 1010.60 1010.32 1010.12 1009.98 1009.92 1009.89 1009.88 1009.85 1009.77 1009.62 1009.41 1009.15
1002.41 1001.47 1000.68 1000.12 999.84 999.87 1000.20 1000.81 1001.65 1002.64 1003.69 1004.74 1005.71 1006.57 1007.29 1007.89 1008.38 1008.82 1009.23 1009.64 1010.07 1010.50 1010.91 1011.27 1011.55 1011.71 1011.73 1011.61 1011.38 1011.07 1010.71 1010.36 1010.04 1009.80 1009.63 1009.52 1009.45 1009.40 1009.32 1009.21 1009.03 1008.80 1008.52
1002.59 1001.54 1000.64 999.97 999.60 999.55 999.82 1000.40 1001.22 1002.21 1003.29 1004.36 1005.38 1006.28 1007.05 1007.70 1008.24 1008.71 1009.15 1009.57 1010.00 1010.42 1010.82 1011.16 1011.41 1011.54 1011.54 1011.41 1011.17 1010.84 1010.47 1010.10 1009.77 1009.49 1009.28 1009.13 1009.01 1008.90 1008.78 1008.61 1008.39 1008.13 1007.82
1003.19 1002.11 1001.16 1000.43 999.99 999.86 1000.07 1000.58 1001.34 1002.29 1003.32 1004.38 1005.38 1006.29 1007.07 1007.73 1008.29 1008.77 1009.21 1009.62 1010.03 1010.42 1010.77 1011.07 1011.29 1011.39 1011.37 1011.22 1010.98 1010.65 1010.28 1009.91 1009.56 1009.26 1009.01 1008.80 1008.63 1008.45 1008.26 1008.04 1007.77 1007.46 1007.12
1004.18 1003.15 1002.22 1001.49 1001.01 1000.83 1000.95 1001.36 1002.03 1002.87 1003.82 1004.80 1005.74 1006.59 1007.34 1007.98 1008.51 1008.98 1009.39 1009.77 1010.13 1010.47 1010.78 1011.03 1011.20 1011.27 1011.23 1011.09 1010.84 1010.53 1010.17 1009.80 1009.45 1009.12 1008.83 1008.58 1008.34 1008.09 1007.83 1007.53 1007.21 1006.85 1006.47
1005.46 1004.55 1003.72 1003.03 1002.55 1002.32 1002.37 1002.67 1003.20 1003.91 1004.71 1005.56 1006.38 1007.14 1007.81 1008.39 1008.87 1009.29 1009.65 1009.98 1010.29 1010.58 1010.83 1011.03 1011.16 1011.20 1011.16 1011.01 1010.78 1010.49 1010.15 1009.79 1009.43 1009.09 1008.76 1008.45 1008.14 1007.82 1007.48 1007.12 1006.74 1006.34 1005.94
1006.87 1006.14 1005.44 1004.85 1004.40 1004.15 1004.12 1004.31 1004.69 1005.23 1005.86 1006.54 1007.21 1007.84 1008.40 1008.88 1009.29 1009.64 1009.94 1010.22 1010.47 1010.69 1010.89 1011.05 1011.15 1011.17 1011.12 1010.99 1010.78 1010.51 1010.19 1009.85 1009.48 1009.12 1008.75 1008.38 1008.00 1007.62 1007.21 1006.80 1006.37 1005.95 1005.55
1008.23 1007.71 1007.18 1006.70 1006.31 1006.06 1005.97 1006.05 1006.29 1006.65 1007.10 1007.60 1008.10 1008.58 1009.01 1009.38 1009.70 1009.98 1010.21 1010.42 1010.61 1010.79 1010.94 1011.06 1011.13 1011.14 1011.09 1010.97 1010.78 1010.54 1010.24 1009.90 1009.53 1009.14 1008.74 1008.32 1007.88 1007.44 1007.00 1006.55 1006.11 1005.70 1005.32
1009.39 1009.08 1008.72 1008.36 1008.05 1007.81 1007.68 1007.67 1007.78 1007.98 1008.26 1008.59 1008.92 1009.25 1009.55 1009.82 1010.04 1010.24 1010.41 1010.56 1010.70 1010.83 1010.93 1011.02 1011.06 1011.07 1011.01 1010.90 1010.73 1010.50 1010.21 1009.88 1009.50 1009.10 1008.66 1008.21 1007.75 1007.28 1006.82 1006.38 1005.96 1005.59 1005.27
Thickness
5813 5813 5812 5810 5807 5804 5801 5798 5796 5793 5791 5789 5786 5783 5782 5781 5780 5780 5777 5776 5775 5774 5773 5774 5771 5770 5770 5768 5769 5768 5766 5765 5765 5764 5763 5766 5766 5764 5763 5762 5761 5760 5758
5811 5810 5810 5809 5807 5803 5800 5798 5796 5794 5792 5790 5787 5785 5784 5783 5782 5781 5778 5776 5775 5774 5774 5771 5772 5771 5769 5767 5766 5764 5763 5763 5764 5760 5756 5755 5757 5759 5763 5761 5759 5758 5758
5811 5810 5809 5808 5807 5804 5801 5799 5796 5794 5792 5790 5789 5786 5783 5782 5781 5779 5779 5777 5775 5774 5772 5771 5771 5770 5770 5768 5765 5764 5761 5760 5761 5760 5755 5750 5747 5752 5759 5757 5758 5755 5754
5815 5812 5810 5807 5806 5805 5803 5799 5795 5793 5791 5790 5788 5785 5782 5779 5779 5779 5779 5777 5775 5773 5772 5771 5769 5768 5769 5766 5765 5764 5762 5758 5757 5758 5757 5754 5751 5746 5748 5754 5756 5755 5753
5816 5812 5811 5808 5807 5806 5804 5800 5795 5792 5791 5790 5788 5784 5783 5782 5782 5780 5777 5775 5775 5773 5772 5770 5768 5767 5766 5764 5763 5761 5759 5758 5756 5755 5754 5752 5750 5748 5743 5743 5747 5751 5753
5816 5813 5812 5809 5807 5806 5803 5799 5794 5790 5790 5788 5786 5783 5781 5779 5777 5776 5775 5775 5775 5773 5772 5770 5767 5765 5764 5762 5760 5758 5757 5755 5753 5752 5751 5749 5747 5745 5743 5741 5741 5743 5748
5816 5812 5809 5806 5804 5802 5800 5797 5792 5788 5788 5786 5785 5783 5780 5778 5775 5774 5774 5773 5773 5772 5769 5768 5765 5763 5761 5759 5757 5755 5754 5753 5750 5749 5749 5748 5747 5746 5743 5740 5739 5740 5744
5817 5813 5810 5806 5803 5800 5797 5795 5791 5788 5786 5785 5783 5782 5780 5779 5777 5774 5773 5771 5771 5771 5768 5765 5763 5761 5759 5758 5755 5754 5752 5750 5749 5748 5746 5745 5745 5744 5741 5738 5734 5733 5738
5815 5812 5810 5807 5803 5800 5797 5794 5790 5787 5785 5783 5781 5780 5779 5776 5774 5772 5770 5770 5768 5767 5765 5762 5760 5758 5756 5754 5751 5750 5748 5747 5746 5746 5744 5742 5742 5740 5739 5738 5734 5729 5727
5812 5811 5809 5806 5803 5801 5798 5795 5791 5786 5783 5781 5780 5780 5777 5774 5771 5769 5767 5765 5764 5763 5761 5759 5757 5755 5753 5750 5748 5747 5745 5742 5741 5740 5738 5736 5738 5737 5736 5734 5732 5730 5726
5809 5808 5806 5804 5802 5800 5797 5793 5789 5785 5782 5780 5778 5776 5774 5772 5769 5766 5764 5762 5760 5758 5756 5755 5753 5751 5749 5747 5744 5743 5741 5739 5737 5736 5734 5732 5731 5731 5731 5730 5728 5726 5723
5807 5806 5804 5801 5798 5795 5793 5790 5787 5784 5781 5778 5775 5772 5770 5768 5766 5764 5761 5759 5756 5755 5753 5751 5749 5747 5745 5743 5741 5738 5737 5735 5733 5731 5729 5727 5727 5724 5724 5723 5723 5722 5720
5800 5800 5798 5795 5792 5790 5788 5786 5784 5781 5779 5776 5772 5768 5766 5763 5760 5759 5757 5755 5753 5751 5750 5747 5745 5743 5741 5739 5737 5735 5733 5731 5729 5727 5724 5723 5721 5718 5719 5717 5717 5717 5717
5792 5791 5789 5788 5786 5784 5782 5779 5778 5777 5774 5770 5767 5763 5761 5758 5756 5754 5752 5750 5748 5746 5744 5742 5740 5738 5736 5734 5732 5731 5729 5727 5725 5723 5721 5719 5716 5714 5712 5712 5710 5710 5709
5785 5784 5782 5780 5779 5778 5776 5774 5772 5770 5768 5764 5760 5757 5755 5753 5751 5749 5747 5745 5743 5741 5739 5737 5735 5733 5731 5729 5727 5725 5725 5722 5720 5718 5716 5715 5711 5708 5706 5706 5705 5703 5702
5778 5777 5775 5774 5772 5770 5768 5766 5764 5763 5761 5757 5754 5751 5749 5747 5745 5743 5741 5739 5736 5734 5732 5730 5728 5726 5725 5720 5717 5716 5717 5716 5714 5712 5711 5710 5707 5703 5699 5697 5696 5694 5694
5772 5771 5770 5768 5766 5764 5762 5759 5757 5755 5752 5749 5747 5744 5742 5740 5738 5737 5734 5731 5729 5727 5724 5722 5720 5717 5714 5711 5709 5707 5708 5709 5707 5705 5704 5704 5705 5699 5697 5693 5690 5689 5686
5764 5764 5764 5762 5762 5760 5757 5754 5751 5748 5745 5742 5739 5737 5734 5732 5730 5727 5725 5723 5721 5718 5715 5713 5712 5709 5707 5703 5701 5699 5700 5702 5701 5699 5697 5695 5694 5693 5688 5687 5687 5686 5685
5758 5757 5757 5757 5755 5752 5750 5747 5743 5741 5737 5735 5732 5730 5727 5724 5721 5718 5716 5715 5712 5710 5708 5706 5704 5702 5699 5695 5693 5690 5694 5695 5694 5693 5691 5688 5687 5682 5678 5678 5679 5678 5679
5751 5751 5751 5750 5746 5743 5742 5738 5736 5732 5729 5728 5726 5724 5721 5717 5714 5711 5708 5707 5704 5702 5701 5699 5697 5695 5692 5688 5685 5681 5687 5687 5686 5686 5685 5680 5677 5673 5670 5670 5670 5670 5670
5743 5743 5742 5739 5736 5736 5733 5729 5727 5724 5723 5722 5719 5716 5713 5710 5708 5704 5701 5698 5696 5693 5691 5691 5689 5687 5685 5682 5677 5674 5677 5678 5678 5679 5678 5677 5669 5666 5662 5660 5662 5661 5660
5734 5733 5731 5729 5728 5727 5723 5719 5717 5717 5715 5712 5710 5707 5705 5703 5701 5696 5693 5690 5687 5685 5683 5681 5680 5681 5679 5674 5671 5668 5666 5666 5668 5669 5670 5668 5661 5658 5655 5654 5653 5651 5650
5724 5724 5722 5720 5719 5717 5716 5711 5709 5708 5706 5704 5701 5699 5697 5695 5693 5689 5686 5683 5680 5679 5677 5676 5674 5674 5672 5669 5664 5661 5660 5658 5659 5661 5658 5655 5652 5650 5650 5648 5646 5644 5646
5716 5715 5713 5710 5708 5708 5706 5704 5702 5700 5698 5695 5693 5691 5689 5687 5684 5681 5680 5677 5674 5671 5669 5667 5666 5665 5664 5662 5660 5658 5655 5652 5652 5652 5650 5647 5645 5644 5643 5643 5642 5642 5640
5707 5706 5703 5700 5699 5698 5697 5696 5694 5692 5689 5687 5686 5684 5683 5680 5675 5673 5670 5668 5664 5662 5658 5658 5657 5655 5653 5650 5644 5644 5646 5645 5644 5641 5643 5644 5643 5642 5641 5640 5638 5636 5634
5698 5696 5695 5693 5691 5690 5688 5686 5685 5682 5679 5679 5678 5676 5674 5672 5670 5667 5663 5657 5654 5650 5647 5643 5642 5643 5639 5636 5634 5633 5632 5631 5630 5631 5636 5636 5635 5633 5633 5632 5630 5628 5626